User: anonymous   Login
Location: Unspecified
(0.0000°N, 0.0000°E)
Time: 04:02:33
(UTC+00:00)
Language:

STARLINK-11549 [DTC] - Orbit

View from above orbital plane
View from above orbital plane
View from above satellite
View from above satellite

Ground track
Ground track

The orbit is defined by the following mean orbital elements,

1 62832U          26145.53306080 +.00000000 +00000-0 +20735-2 0 00006
2 62832  43.0004 203.0265 0001239 266.1965  93.8761 15.70888869    06
Epoch (UTC): 25 May 2026 12:47:36
Eccentricity: 0.0001239
inclination: 43.0004°
perigee height: 356 km
apogee height: 357 km
right ascension of ascending node: 203.0265°
argument of perigee: 266.1965°
revolutions per day: 15.70888869
mean anomaly at epoch: 93.8761°

The dashed part of the orbit path shows where the satellite is in the earth's shadow,  

DLR